Fremont, MI

11:20 AM EDT on September 15, 2019 (GMT -0400)
Fremont

Weather History for KFFX - July, 2019

Change the Weather History Date:

Friday, July 26, 2019

  Actual Average (KMKG) Record (KMKG)
Temperature  
Mean Temperature 70 °F -  
Max Temperature 82 °F 79 °F 93 °F (1955)
Min Temperature 57 °F 61 °F 47 °F (1946)
Cooling Degree Days 4    
Growing Degree Days 20 (Base 50)    
Moisture  
Dew Point 56 °F    
Average Humidity 64    
Maximum Humidity 96    
Minimum Humidity 36    
Precipitation  
Precipitation 0.00 in - - ()
Sea Level Pressure  
Sea Level Pressure 30.19 in    
Wind  
Wind Speed 4 mph (SSW)    
Max Wind Speed 17 mph    
Max Gust Speed 24 mph    
Visibility 10 miles    
Events      
Averages and records for this station are not official NWS values.
T = Trace of Precipitation, MM = Missing Value Source: NWS Daily Summary

Daily Weather History Graph

Daily Weather History Graph

Search for Another Location

Airport or City:

Astronomy

Jul. 26, 2019 Rise Set
Actual Time 6:27 AM EDT 9:13 PM EDT
Civil Twilight 5:53 AM EDT 9:46 PM EDT
Nautical Twilight 5:11 AM EDT 10:28 PM EDT
Astronomical Twilight 4:23 AM EDT 11:16 PM EDT
Moon 1:43 AM EDT (7/26) 3:55 PM EDT (7/26)
Length of Visible Light 15h 52m
Length of Day
14h 46m
Waning Crescent, 34% of the Moon is Illuminated
Jul 26
Waning Crescent
Jul 31
New
Aug 7
First Quarter
Aug 15
Full
Aug 23
Last Quarter

Hourly Weather History & Observations

Time (EDT) Temp. Heat Index Dew Point Humidity Pressure Visibility Wind Dir Wind Speed Gust Speed Precip Events Conditions
12:19 AM 62.8 °F - 55.0 °F 76% 30.19 in 10.0 mi Calm Calm - N/A   Clear
12:37 AM 62.2 °F - 55.4 °F 78% 30.19 in 10.0 mi Calm Calm - N/A   Clear
12:55 AM 61.0 °F - 56.1 °F 84% 30.19 in 10.0 mi Calm Calm - N/A   Clear
1:15 AM 61.3 °F - 55.9 °F 82% 30.19 in 10.0 mi Calm Calm - N/A   Clear
1:35 AM 59.7 °F - 57.0 °F 91% 30.19 in 10.0 mi Calm Calm - N/A   Clear
1:58 AM 60.6 °F - 56.8 °F 87% 30.20 in 10.0 mi Calm Calm - N/A   Clear
2:16 AM 60.3 °F - 57.0 °F 89% 30.19 in 10.0 mi Calm Calm - N/A   Clear
2:35 AM 60.1 °F - 56.8 °F 89% 30.19 in 10.0 mi Calm Calm - N/A   Clear
2:36 AM 60.3 °F - 56.5 °F 87% 30.19 in 10.0 mi Calm Calm - N/A   Clear
2:55 AM 60.1 °F - 56.1 °F 87% 30.19 in 10.0 mi Calm Calm - N/A   Clear
3:19 AM 58.8 °F - 56.7 °F 93% 30.19 in 10.0 mi Calm Calm - N/A   Clear
3:37 AM 58.6 °F - 57.2 °F 95% 30.18 in 10.0 mi Calm Calm - N/A   Clear
3:55 AM 59.2 °F - 56.3 °F 90% 30.18 in 10.0 mi Calm Calm - N/A   Clear
3:56 AM 59.2 °F - 56.1 °F 90% 30.18 in 10.0 mi Calm Calm - N/A   Clear
4:15 AM 59.9 °F - 56.1 °F 87% 30.18 in 10.0 mi Calm Calm - N/A   Clear
4:16 AM 59.9 °F - 55.9 °F 87% 30.18 in 10.0 mi Calm Calm - N/A   Clear
4:35 AM 58.1 °F - 56.5 °F 94% 30.18 in 10.0 mi Calm Calm - N/A   Clear
4:58 AM 58.8 °F - 56.7 °F 93% 30.18 in 10.0 mi Calm Calm - N/A   Clear
5:16 AM 58.3 °F - 56.7 °F 94% 30.19 in 10.0 mi Calm Calm - N/A   Clear
5:35 AM 58.5 °F - 56.5 °F 93% 30.19 in 10.0 mi Calm Calm - N/A   Clear
5:36 AM 58.5 °F - 56.3 °F 93% 30.19 in 10.0 mi Calm Calm - N/A   Clear
5:55 AM 57.7 °F - 56.5 °F 96% 30.20 in 10.0 mi Calm Calm - N/A   Clear
5:56 AM 57.7 °F - 56.7 °F 96% 30.20 in 10.0 mi Calm Calm - N/A   Clear
6:19 AM 58.3 °F - 56.3 °F 93% 30.20 in 10.0 mi Calm Calm - N/A   Clear
6:37 AM 59.2 °F - 56.8 °F 92% 30.20 in 10.0 mi Calm Calm - N/A   Clear
6:55 AM 59.2 °F - 57.2 °F 93% 30.20 in 10.0 mi Calm Calm - N/A   Clear
7:15 AM 60.1 °F - 57.9 °F 93% 30.21 in 10.0 mi Calm Calm - N/A   Clear
7:16 AM 60.1 °F - 58.1 °F 93% 30.21 in 10.0 mi Calm Calm - N/A   Clear
7:35 AM 61.7 °F - 57.9 °F 87% 30.21 in 10.0 mi Calm Calm - N/A   Clear
7:40 AM 62.4 °F - 57.9 °F 85% 30.21 in 10.0 mi South 3.5 mph - N/A   Clear
7:58 AM 63.7 °F - 57.6 °F 80% 30.21 in 10.0 mi SSE 3.5 mph - N/A   Clear
8:16 AM 65.5 °F - 57.7 °F 76% 30.22 in 10.0 mi Calm Calm - N/A   Clear
8:35 AM 66.9 °F - 57.7 °F 72% 30.22 in 10.0 mi SSW 3.5 mph - N/A   Clear
8:55 AM 68.5 °F - 58.3 °F 70% 30.23 in 10.0 mi South 4.6 mph - N/A   Clear
8:56 AM 68.5 °F - 58.3 °F 70% 30.23 in 10.0 mi South 3.5 mph - N/A   Clear
9:19 AM 71.2 °F - 58.8 °F 65% 30.23 in 10.0 mi SW 4.6 mph - N/A   Clear
9:37 AM 72.9 °F - 58.8 °F 61% 30.24 in 10.0 mi SSW 6.9 mph - N/A   Clear
9:55 AM 74.5 °F - 59.2 °F 59% 30.24 in 10.0 mi SSW 6.9 mph - N/A   Clear
10:15 AM 76.3 °F - 59.4 °F 56% 30.23 in 10.0 mi South 6.9 mph - N/A   Clear
10:35 AM 77.0 °F - 59.2 °F 54% 30.23 in 10.0 mi SSW 8.1 mph - N/A   Clear
10:40 AM 76.8 °F - 58.8 °F 54% 30.23 in 10.0 mi South 5.8 mph - N/A   Clear
10:58 AM 79.0 °F - 58.5 °F 49% 30.23 in 10.0 mi SSW 11.5 mph - N/A   Clear
11:16 AM 78.6 °F - 57.7 °F 49% 30.23 in 10.0 mi SSW 8.1 mph - N/A   Clear
11:35 AM 79.0 °F - 58.3 °F 49% 30.23 in 10.0 mi SSW 10.4 mph - N/A   Clear
11:55 AM 78.6 °F - 56.7 °F 47% 30.23 in 10.0 mi SW 10.4 mph - N/A   Clear
12:15 PM 80.6 °F 80.6 °F 56.1 °F 43% 30.22 in 10.0 mi SSW 11.5 mph - N/A   Clear
12:37 PM 80.8 °F 80.5 °F 54.5 °F 40% 30.22 in 10.0 mi SSW 15.0 mph 19.6 mph N/A   Scattered Clouds
12:56 PM 81.0 °F 80.6 °F 54.5 °F 40% 30.22 in 10.0 mi SSW 12.7 mph - N/A   Clear
1:15 PM 80.2 °F 80.3 °F 55.2 °F 42% 30.22 in 10.0 mi SSW 10.4 mph - N/A   Scattered Clouds
1:16 PM 80.4 °F 80.4 °F 55.6 °F 42% 30.22 in 10.0 mi SSW 10.4 mph - N/A   Clear
1:35 PM 81.5 °F 80.8 °F 53.8 °F 38% 30.22 in 10.0 mi SSW 13.8 mph 20.7 mph N/A   Clear
1:36 PM 81.5 °F 80.8 °F 53.6 °F 38% 30.21 in 10.0 mi SSW 17.3 mph 20.7 mph N/A   Clear
1:59 PM 82.8 °F 81.6 °F 53.1 °F 36% 30.21 in 10.0 mi SW 15.0 mph - N/A   Clear
2:17 PM 80.8 °F - 51.4 °F 36% 30.21 in 10.0 mi SSW 16.1 mph 21.9 mph N/A   Clear
2:35 PM 79.2 °F - 53.6 °F 41% 30.20 in 10.0 mi SW 11.5 mph 20.7 mph N/A   Scattered Clouds
2:55 PM 81.1 °F 80.6 °F 53.6 °F 38% 30.20 in 10.0 mi SSW 13.8 mph 19.6 mph N/A   Clear
2:56 PM 81.3 °F 80.8 °F 54.0 °F 39% 30.20 in 10.0 mi SSW 13.8 mph 19.6 mph N/A   Clear
3:15 PM 82.4 °F 81.4 °F 53.6 °F 37% 30.19 in 10.0 mi SSW 13.8 mph 23.0 mph N/A   Clear
3:38 PM 81.9 °F 81.2 °F 54.9 °F 39% 30.18 in 10.0 mi SSW 12.7 mph 23.0 mph N/A   Clear
3:56 PM 82.0 °F 81.3 °F 54.0 °F 38% 30.18 in 10.0 mi SW 15.0 mph 23.0 mph N/A   Clear
4:15 PM 80.6 °F 80.3 °F 53.6 °F 39% 30.18 in 10.0 mi SSW 13.8 mph 19.6 mph N/A   Scattered Clouds
4:35 PM 81.7 °F 81.2 °F 55.0 °F 40% 30.17 in 10.0 mi SSW 15.0 mph 23.0 mph N/A   Scattered Clouds
4:36 PM 81.9 °F 81.3 °F 55.0 °F 40% 30.17 in 10.0 mi SSW 17.3 mph 23.0 mph N/A   Scattered Clouds
4:59 PM 80.2 °F 80.2 °F 54.5 °F 41% 30.17 in 10.0 mi SSW 15.0 mph 21.9 mph N/A   Scattered Clouds
5:17 PM 79.0 °F - 55.4 °F 44% 30.17 in 10.0 mi SW 15.0 mph 24.2 mph N/A   Clear
5:35 PM 78.8 °F - 55.8 °F 45% 30.16 in 10.0 mi SSW 13.8 mph 20.7 mph N/A   Clear
5:55 PM 80.1 °F 80.1 °F 55.2 °F 42% 30.16 in 10.0 mi SSW 17.3 mph 24.2 mph N/A   Clear
5:56 PM 80.1 °F 80.1 °F 55.2 °F 42% 30.16 in 10.0 mi SSW 15.0 mph 24.2 mph N/A   Clear
6:15 PM 80.8 °F 80.7 °F 55.8 °F 42% 30.16 in 10.0 mi SSW 11.5 mph 20.7 mph N/A   Clear
6:20 PM 80.8 °F 80.7 °F 55.8 °F 42% 30.15 in 10.0 mi SSW 11.5 mph 17.3 mph N/A   Clear
6:38 PM 78.1 °F - 55.8 °F 46% 30.15 in 10.0 mi SSW 15.0 mph - N/A   Clear
6:56 PM 77.5 °F - 55.9 °F 47% 30.15 in 10.0 mi SSW 11.5 mph 19.6 mph N/A   Clear
7:15 PM 77.4 °F - 55.9 °F 47% 30.15 in 10.0 mi SSW 12.7 mph 16.1 mph N/A   Clear
7:35 PM 77.0 °F - 56.3 °F 49% 30.15 in 10.0 mi SSW 10.4 mph - N/A   Clear
7:36 PM 77.0 °F - 56.3 °F 49% 30.15 in 10.0 mi SSW 10.4 mph - N/A   Clear
7:59 PM 76.1 °F - 56.3 °F 50% 30.14 in 10.0 mi South 8.1 mph - N/A   Clear
8:17 PM 75.9 °F - 55.9 °F 50% 30.13 in 10.0 mi South 6.9 mph - N/A   Clear
8:55 PM 74.5 °F - 57.2 °F 55% 30.14 in 10.0 mi South 4.6 mph - N/A   Clear
9:15 PM 74.3 °F - 57.4 °F 55% 30.13 in 10.0 mi South 3.5 mph - N/A   Clear
9:20 PM 73.9 °F - 57.4 °F 56% 30.13 in 10.0 mi South 4.6 mph - N/A   Clear
9:38 PM 73.2 °F - 57.7 °F 58% 30.13 in 10.0 mi South 4.6 mph - N/A   Clear
9:56 PM 72.5 °F - 58.1 °F 60% 30.14 in 10.0 mi South 4.6 mph - N/A   Clear
10:15 PM 72.1 °F - 58.3 °F 62% 30.14 in 10.0 mi South 4.6 mph - N/A   Clear
10:35 PM 71.6 °F - 58.6 °F 64% 30.13 in 10.0 mi SSE 4.6 mph - N/A   Clear
10:36 PM 71.6 °F - 58.6 °F 64% 30.13 in 10.0 mi SSE 4.6 mph - N/A   Clear
10:59 PM 72.1 °F - 58.6 °F 62% 30.12 in 10.0 mi South 6.9 mph - N/A   Clear
11:17 PM 72.7 °F - 58.5 °F 61% 30.13 in 10.0 mi South 4.6 mph - N/A   Scattered Clouds
11:36 PM 73.0 °F - 58.3 °F 60% 30.12 in 10.0 mi South 4.6 mph - N/A   Scattered Clouds
11:55 PM 72.5 °F - 58.5 °F 61% 30.12 in 10.0 mi South 5.8 mph - N/A   Mostly Cloudy